Tracking 31027 objects as of 19-Jul-2025
HD Live streaming from Space Station
objects crossing your sky now

CORVUS BC1

Track CORVUS BC1 now!
10-day predictions
CORVUS BC1 is classified as:


NORAD ID: 42847
Int'l Code: 2017-042Y
Perigee: 554.5 km
Apogee: 572.7 km
Inclination: 97.4 °
Period: 95.8 minutes
Semi major axis: 6934 km
RCS: Unknown
Launch date: July 14, 2017
Source: United States (US)
Launch site: TYURATAM MISSILE AND SPACE COMPLEX (TTMTR)

Uplink (MHz):
Downlink (MHz): 400.175
Beacon (MHz):
Mode: FM
Call sign:
Status: Inactive

Your satellite tracking list
SL-8 DEB
Track 1 satellite(s)




NASA's NSSDC Master Catalog

Two Line Element Set (TLE):
1 42847U 17042Y   25199.43374192  .00003327  00000-0  24856-3 0  9991
2 42847  97.3780  10.7257 0013166 145.4307 214.7777 15.03382788436894
Source of the keplerian elements: AFSPC